• In Netherlands
  • List of Countries
  • For 7 days
  • Water Temperature
  • Satellite Maps
  • Weather Map
  • Weather Widgets
  • user-avatar
    Login

    Hourly Weather Sherpur

    Today, 29 March, Wednesday

    Time Temperature Precipitation Wind Pressure Humidity
    00:00 +12°C° 0 mm 1 mps 610 mmHg 52%
    01:00 +12°C° 0 mm 1 mps 610 mmHg 53%
    02:00 +11°C° 0 mm 1 mps 610 mmHg 54%
    03:00 +11°C° 0 mm 1 mps 609 mmHg 55%
    04:00 +11°C° 0 mm 1 mps 609 mmHg 56%
    05:00 +9°C° 0 mm 2 mps 609 mmHg 57%
    06:00 +10°C° 0 mm 2 mps 610 mmHg 55%
    07:00 +12°C° 0 mm 2 mps 610 mmHg 53%
    08:00 +13°C° 0 mm 2 mps 611 mmHg 50%
    09:00 +14°C° 0 mm 1 mps 611 mmHg 45%
    10:00 +16°C° 0 mm 1 mps 611 mmHg 39%
    11:00 +18°C° 0 mm 1 mps 612 mmHg 35%
    12:00 +18°C° 0 mm 2 mps 612 mmHg 31%
    13:00 +19°C° 0 mm 2 mps 611 mmHg 28%
    14:00 +19°C° 0 mm 2 mps 611 mmHg 25%
    15:00 +19°C° 0 mm 2 mps 611 mmHg 25%
    16:00 +19°C° 0 mm 2 mps 611 mmHg 25%
    17:00 +19°C° 0 mm 2 mps 611 mmHg 26%
    18:00 +17°C° 0 mm 2 mps 610 mmHg 29%
    19:00 +16°C° 0 mm 2 mps 610 mmHg 33%
    20:00 +14°C° 0 mm 2 mps 610 mmHg 37%
    21:00 +14°C° 0 mm 2 mps 609 mmHg 38%
    22:00 +13°C° 0 mm 2 mps 609 mmHg 39%
    23:00 +13°C° 0 mm 2 mps 609 mmHg 40%

    Tomorrow, 30 March, Thursday

    Time Temperature Precipitation Wind Pressure Humidity
    00:00 +12°C° 0 mm 2 mps 609 mmHg 41%
    01:00 +12°C° 0 mm 2 mps 609 mmHg 42%
    02:00 +10°C° 0 mm 2 mps 608 mmHg 44%
    03:00 +10°C° 0 mm 2 mps 608 mmHg 45%
    04:00 +9°C° 0 mm 2 mps 608 mmHg 46%
    05:00 +10°C° 0 mm 1 mps 608 mmHg 48%
    06:00 +11°C° 0 mm 1 mps 609 mmHg 45%
    07:00 +12°C° 0 mm 1 mps 610 mmHg 42%
    08:00 +13°C° 0 mm 1 mps 611 mmHg 40%
    09:00 +14°C° 0.1 mm 1 mps 611 mmHg 38%
    10:00 +15°C° 0.1 mm 1 mps 612 mmHg 36%
    11:00 +18°C° 0.1 mm 1 mps 612 mmHg 34%
    12:00 +17°C° 0.1 mm 2 mps 612 mmHg 33%
    13:00 +18°C° 0.1 mm 2 mps 612 mmHg 32%
    14:00 +19°C° 0.1 mm 2 mps 612 mmHg 31%
    15:00 +19°C° 0.2 mm 2 mps 612 mmHg 32%
    16:00 +18°C° 0.2 mm 3 mps 611 mmHg 33%
    17:00 +18°C° 0.2 mm 3 mps 611 mmHg 34%
    18:00 +17°C° 0.2 mm 3 mps 611 mmHg 38%
    19:00 +15°C° 0.2 mm 2 mps 611 mmHg 42%
    20:00 +14°C° 0.2 mm 2 mps 610 mmHg 47%
    21:00 +13°C° 0.1 mm 2 mps 610 mmHg 49%
    22:00 +13°C° 0.1 mm 2 mps 610 mmHg 51%
    23:00 +12°C° 0.1 mm 1 mps 610 mmHg 53%

    Day after tomorrow, 31 March, Friday

    Time Temperature Precipitation Wind Pressure Humidity
    00:00 +12°C° 0 mm 1 mps 610 mmHg 54%
    01:00 +11°C° 0 mm 1 mps 609 mmHg 55%
    02:00 +11°C° 0 mm 1 mps 609 mmHg 55%
    03:00 +10°C° 0 mm 1 mps 608 mmHg 56%
    04:00 +10°C° 0 mm 1 mps 608 mmHg 56%
    05:00 +9°C° 0 mm 1 mps 608 mmHg 57%
    06:00 +10°C° 0 mm 1 mps 608 mmHg 54%
    07:00 +11°C° 0 mm 1 mps 609 mmHg 51%
    08:00 +12°C° 0 mm 1 mps 610 mmHg 48%
    09:00 +13°C° 0 mm 1 mps 610 mmHg 44%
    10:00 +15°C° 0 mm 2 mps 611 mmHg 41%
    11:00 +16°C° 0 mm 2 mps 611 mmHg 37%
    12:00 +17°C° 0 mm 2 mps 611 mmHg 34%
    13:00 +18°C° 0 mm 3 mps 611 mmHg 32%
    14:00 +18°C° 0 mm 3 mps 611 mmHg 29%
    15:00 +18°C° 0 mm 3 mps 611 mmHg 28%
    16:00 +18°C° 0 mm 3 mps 611 mmHg 27%
    17:00 +18°C° 0 mm 3 mps 610 mmHg 27%
    18:00 +17°C° 0 mm 2 mps 610 mmHg 31%
    19:00 +15°C° 0 mm 2 mps 610 mmHg 35%
    20:00 +14°C° 0 mm 1 mps 610 mmHg 39%
    21:00 +13°C° 0 mm 1 mps 610 mmHg 39%
    22:00 +13°C° 0 mm 1 mps 610 mmHg 40%
    23:00 +12°C° 0 mm 1 mps 611 mmHg 41%

    1 April, Saturday

    Time Temperature Precipitation Wind Pressure Humidity
    00:00 +12°C° 0 mm 1 mps 610 mmHg 41%
    01:00 +12°C° 0 mm 1 mps 610 mmHg 41%
    02:00 +11°C° 0 mm 1 mps 610 mmHg 41%
    03:00 +10°C° 0 mm 2 mps 610 mmHg 41%
    04:00 +10°C° 0 mm 2 mps 610 mmHg 41%
    05:00 +9°C° 0 mm 2 mps 609 mmHg 42%
    06:00 +10°C° 0 mm 2 mps 610 mmHg 39%
    07:00 +13°C° 0 mm 2 mps 611 mmHg 35%
    08:00 +14°C° 0 mm 2 mps 611 mmHg 32%
    09:00 +15°C° 0 mm 2 mps 612 mmHg 28%
    10:00 +16°C° 0 mm 2 mps 612 mmHg 24%
    11:00 +18°C° 0 mm 2 mps 613 mmHg 20%
    12:00 +18°C° 0 mm 2 mps 613 mmHg 19%
    13:00 +19°C° 0 mm 2 mps 612 mmHg 18%
    14:00 +20°C° 0 mm 3 mps 612 mmHg 17%
    15:00 +20°C° 0 mm 3 mps 612 mmHg 17%
    16:00 +20°C° 0 mm 3 mps 611 mmHg 18%
    17:00 +19°C° 0 mm 3 mps 611 mmHg 18%
    18:00 +18°C° 0 mm 2 mps 610 mmHg 21%
    19:00 +16°C° 0 mm 2 mps 610 mmHg 25%
    20:00 +15°C° 0 mm 1 mps 610 mmHg 28%
    21:00 +14°C° 0 mm 1 mps 609 mmHg 29%
    22:00 +13°C° 0 mm 1 mps 609 mmHg 31%
    23:00 +13°C° 0 mm 1 mps 609 mmHg 32%

    2 April, Sunday

    Time Temperature Precipitation Wind Pressure Humidity
    00:00 +12°C° 0 mm 1 mps 608 mmHg 32%
    01:00 +12°C° 0 mm 1 mps 608 mmHg 33%
    02:00 +12°C° 0 mm 1 mps 607 mmHg 34%
    03:00 +11°C° 0 mm 1 mps 607 mmHg 34%
    04:00 +11°C° 0 mm 1 mps 607 mmHg 35%
    05:00 +11°C° 0 mm 1 mps 607 mmHg 35%
    06:00 +12°C° 0 mm 1 mps 608 mmHg 33%
    07:00 +13°C° 0 mm 1 mps 608 mmHg 31%
    08:00 +15°C° 0 mm 1 mps 609 mmHg 28%
    09:00 +16°C° 0 mm 1 mps 610 mmHg 27%
    10:00 +18°C° 0 mm 1 mps 610 mmHg 25%
    11:00 +18°C° 0 mm 2 mps 610 mmHg 23%
    12:00 +19°C° 0 mm 2 mps 610 mmHg 23%
    13:00 +20°C° 0 mm 2 mps 610 mmHg 22%
    14:00 +20°C° 0 mm 2 mps 609 mmHg 21%
    15:00 +20°C° 0 mm 2 mps 609 mmHg 23%
    16:00 +19°C° 0 mm 2 mps 608 mmHg 25%
    17:00 +19°C° 0 mm 2 mps 608 mmHg 26%
    18:00 +18°C° 0 mm 2 mps 607 mmHg 30%
    19:00 +17°C° 0 mm 2 mps 607 mmHg 34%
    20:00 +16°C° 0 mm 2 mps 607 mmHg 38%
    21:00 +15°C° 0 mm 2 mps 607 mmHg 42%
    22:00 +14°C° 0 mm 2 mps 606 mmHg 45%
    23:00 +13°C° 0 mm 2 mps 606 mmHg 49%

    3 April, Monday

    Time Temperature Precipitation Wind Pressure Humidity
    00:00 +13°C° 0.1 mm 2 mps 606 mmHg 51%
    01:00 +12°C° 0.1 mm 2 mps 605 mmHg 53%
    02:00 +12°C° 0.1 mm 2 mps 605 mmHg 55%
    03:00 +11°C° 0 mm 1 mps 605 mmHg 57%
    04:00 +10°C° 0 mm 1 mps 605 mmHg 59%
    05:00 +10°C° 0 mm 1 mps 605 mmHg 61%
    06:00 +11°C° 0 mm 1 mps 605 mmHg 57%
    07:00 +12°C° 0 mm 1 mps 606 mmHg 53%
    08:00 +13°C° 0 mm 1 mps 607 mmHg 49%
    09:00 +14°C° 0 mm 1 mps 607 mmHg 44%
    10:00 +15°C° 0 mm 1 mps 607 mmHg 39%
    11:00 +16°C° 0 mm 1 mps 608 mmHg 33%
    12:00 +16°C° 0.1 mm 2 mps 607 mmHg 33%
    13:00 +17°C° 0.1 mm 2 mps 607 mmHg 34%
    14:00 +17°C° 0.1 mm 2 mps 607 mmHg 34%
    15:00 +16°C° 0.3 mm 2 mps 606 mmHg 38%
    16:00 +15°C° 0.3 mm 2 mps 606 mmHg 42%
    17:00 +14°C° 0.3 mm 2 mps 605 mmHg 46%
    18:00 +12°C° 0.5 mm 3 mps 605 mmHg 50%
    19:00 +11°C° 0.5 mm 3 mps 605 mmHg 53%
    20:00 +10°C° 0.5 mm 3 mps 605 mmHg 57%
    21:00 +10°C° 0.1 mm 2 mps 605 mmHg 58%
    22:00 +9°C° 0.1 mm 2 mps 605 mmHg 60%
    23:00 +9°C° 0.1 mm 1 mps 604 mmHg 61%
    Show more